Terug naar catalogus

SL-8 DEB

ActiefLEO
NORAD 39691·DEBRIS·🇷🇺 Russia

Gelanceerd Feb 12, 1991 vanaf Plesetsk Cosmodrome

Loading…

Volgende Passages (komende 24 uur)

TLE

VerouderendSource: Space-Track

Epoch: Sep 11, 2026, 13:15 UTC

1 39691U 91009DE  26254.55237391  .00000273  00000-0  25970-2 0  9998
2 39691  74.0563 100.1102 0140756 145.2880 215.7441 12.22888059530648

Volg SL-8 DEB in realtime met AllMySat

Download on the App Store